This demonstration page uses our WeatherBlox Daily Observations layout. Learn more.

Left ArrowRight Arrow

39.01783, -85.05884

Hourly Observations for October 16, 2019

Temp ( °F °C ) Dew Point ( °F °C ) Humidity (%) Winds ( mph kmh ) Pressure ( in mb ) Visibility ( mi km ) Precip ( " mm )
12:13 am 00:13 Cloudy with Light Rain 63 17.2 58 14.4 84 84 SSW 7 11 29.77 1008 6 10 0.02 0.51
12:52 am 00:52 Cloudy 62 16.7 59 15 90 90 WSW 6 9 29.75 1007 10 16 0.04 1.02
1:52 am 01:52 Cloudy with Rain 62 16.7 59 15 90 90 S 12 19 29.72 1007 4 6 0.08 2.03
2:27 am 02:27 Cloudy 62 16.7 59 15 90 90 S 10 17 29.74 1007 10 16 0.02 0.51
2:52 am 02:52 Cloudy with Light Rain 62 16.7 59 15 90 90 S 9 15 29.71 1006 10 16 0.02 0.51
3:05 am 03:05 Cloudy 62 16.7 59 15 90 90 SSW 8 13 29.72 1006 9 14 0.00 0.00
3:33 am 03:33 Cloudy with Light Rain 62 16.7 59 15 90 90 SSW 7 11 29.71 1006 8 13 0.00 0.00
3:46 am 03:46 Cloudy with Light Rain 55 13 52 11 88 88 NW 23 37 29.74 1007 10 16 0.00 0.00
3:52 am 03:52 Cloudy with Light Rain 53 11.7 50 10 89 89 NW 23 37 29.72 1007 7 11 0.00 0.00
4:06 am 04:06 Cloudy with Light Rain 52 11.1 47 8.3 83 83 NW 22 35 29.77 1008 6 10 0.01 0.25
4:19 am 04:19 Cloudy with Heavy Rain 51 10.6 47 8.3 86 86 NW 21 33 29.77 1008 3 4 0.05 1.27
4:28 am 04:28 Cloudy with Light Rain 51 10.6 46 7.8 83 83 NW 21 33 29.77 1008 7 11 0.12 3.05
4:52 am 04:52 Cloudy with Light Rain 49 9.4 44 6.7 83 83 NW 21 33 29.75 1008 9 14 0.14 3.56
5:39 am 05:39 Cloudy with Heavy Rain 48 8.9 44 6.7 86 86 NW 13 20 29.78 1009 3 4 0.06 1.52
5:46 am 05:46 Cloudy with Heavy Rain 48 9 45 7 87 87 NW 14 22 29.78 1009 3 5 0.10 2.54
5:52 am 05:52 Cloudy with Light Rain 48 8.9 44 6.7 86 86 NW 12 19 29.75 1008 8 13 0.11 2.79
6:52 am 06:52 Cloudy 48 8.9 43 6.1 83 83 WNW 12 19 29.76 1008 10 16 0.03 0.76
7:52 am 07:52 Mostly Cloudy 47 8.3 41 5 80 80 WNW 14 22 29.78 1008 10 16 0.00 0.00
8:41 am 08:41 Mostly Cloudy 46 7.8 40 4.4 79 79 WNW 9 15 29.83 1010 10 16 0.00 0.00
8:52 am 08:52 Mostly Cloudy 46 7.8 39 3.9 77 77 WNW 13 20 29.80 1009 10 16 0.00 0.00
9:52 am 09:52 Cloudy 46 7.8 39 3.9 77 77 WNW 17 28 29.83 1010 10 16 0.00 0.00
10:52 am 10:52 Cloudy 46 7.8 37 2.8 71 71 WNW 21 33 29.85 1011 10 16 0.00 0.00
11:52 am 11:52 Cloudy 47 8.3 36 2.2 66 66 WNW 21 33 29.87 1012 10 16 0.00 0.00
12:52 pm 12:52 Cloudy 48 8.9 37 2.8 66 66 WNW 16 26 29.88 1012 10 16 0.00 0.00
12:59 pm 12:59 Cloudy 48 8.9 37 2.8 66 66 WNW 16 26 29.90 1013 10 16 0.00 0.00
1:39 pm 13:39 Cloudy 48 8.9 37 2.8 66 66 WNW 16 26 29.90 1013 10 16 0.00 0.00
1:52 pm 13:52 Cloudy 49 9.4 37 2.8 64 64 WNW 14 22 29.88 1012 10 16 0.00 0.00
2:52 pm 14:52 Cloudy 49 9.4 37 2.8 64 64 WNW 14 22 29.88 1012 10 16 0.00 0.00
3:52 pm 15:52 Cloudy 48 8.9 38 3.3 68 68 W 13 20 29.89 1012 10 16 0.00 0.00
4:52 pm 16:52 Cloudy 49 9.4 39 3.9 69 69 W 13 20 29.90 1012 10 16 0.00 0.00
5:52 pm 17:52 Cloudy 50 10 37 2.8 61 61 W 14 22 29.91 1013 10 16 0.00 0.00
6:52 pm 18:52 Cloudy 50 10 37 2.8 61 61 WNW 14 22 29.93 1014 10 16 0.00 0.00
7:52 pm 19:52 Cloudy 50 10 37 2.8 61 61 W 15 24 29.95 1014 10 16 0.00 0.00
8:52 pm 20:52 Cloudy 49 9.4 37 2.8 64 64 W 12 19 29.96 1015 10 16 0.00 0.00
9:52 pm 21:52 Mostly Cloudy 48 8.9 37 2.8 66 66 W 16 26 29.98 1015 10 16 0.00 0.00
10:52 pm 22:52 Cloudy 47 8.3 36 2.2 66 66 W 12 19 29.98 1015 10 16 0.00 0.00
11:52 pm 23:52 Mostly Cloudy 45 7.2 36 2.2 71 71 W 13 20 29.98 1015 10 16 0.00 0.00

Powered by AerisWeather